Temperature
2 3 2 2 2 2 2 2 2 3 3 4 4 4 4 4 4 3 2 2 2 2 2 2 2 2 2 2 2 2 2 3 3 3 3 3 3 3 3 3 3 3 3 3
1 2 2 2 2 2 2 2 2 3 3 4 5 4 4 3 3 2 2 1 1 1 1 1 1 1 1 1 1 1 2 2 2 2 2 2 2 2 2 2 2 3 3 2
1 1 1 0 1 1 2 2 2 2 2 3 3 3 3 3 2 2 1 1 1 1 1 1 1 1 1 1 1 1 1 1 1 1 2 2 2 2 2 2 2 2 2 2
-0 -0 -0 2 3 2 2 2 2 2 2 3 3 3 3 2 2 1 1 1 1 1 1 1 1 1 1 1 0 0 0 1 1 1 1 1 1 1 1 1 1 1 1 1
-1 -0 0 2 2 2 1 1 1 1 1 2 3 2 2 2 2 1 1 1 0 0 0 0 0 0 0 0 -0 -0 -0 0 0 1 1 1 1 1 1 1 1 1 1 1
-1 -0 -0 2 2 2 1 -0 1 1 1 1 1 0 1 1 1 1 1 0 0 -0 -0 -0 -0 -0 -0 -0 -0 -0 -0 -0 0 0 0 0 0 0 0 0 0 0 0 0
-1 -1 -0 1 1 1 0 0 2 2 1 1 0 0 1 1 0 0 0 -0 -0 -1 -1 -1 -1 -1 -1 -1 -1 -1 -1 -1 -0 -0 -0 -0 -0 -0 -0 -0 -0 -0 -0 -0
-1 -1 -1 1 1 -0 0 1 1 1 1 1 0 0 0 0 -0 -0 -1 -1 -1 -1 -1 -1 -1 -1 -1 -1 -1 -1 -1 -1 -1 -1 -1 -1 -1 -1 -1 -1 -1 -1 -1 -1
-1 -0 1 1 1 1 1 1 1 0 0 -0 -0 -0 -0 -1 -1 -1 -1 -1 -2 -2 -2 -2 -2 -2 -2 -2 -2 -2 -2 -2 -2 -1 -1 -1 -1 -1 -1 -1 -1 -1 -1 -1
-1 -1 1 1 1 1 1 0 0 -0 -0 -0 -1 -1 -1 -1 -1 -2 -2 -2 -2 -2 -2 -2 -2 -2 -2 -2 -2 -2 -2 -2 -2 -2 -2 -2 -2 -2 -2 -2 -2 -2 -2 -2
-2 -1 -0 1 1 1 0 -0 -0 -0 -1 -1 -1 -1 -1 -2 -2 -2 -2 -3 -3 -3 -3 -3 -2 -3 -3 -2 -3 -3 -3 -3 -3 -2 -2 -2 -2 -2 -2 -2 -2 -2 -2 -2
-2 -1 -1 -0 0 0 -0 -1 -1 -1 -1 -1 -1 -2 -2 -2 -2 -3 -3 -3 -3 -3 -3 -3 -3 -3 -3 -3 -3 -3 -3 -3 -3 -3 -3 -3 -3 -3 -3 -3 -3 -3 -3 -2
-0 0 -0 -0 -0 -0 -1 -1 -1 -1 -1 -2 -2 -2 -2 -3 -3 -3 -3 -3 -3 -3 -3 -3 -3 -3 -3 -3 -3 -3 -3 -3 -3 -3 -3 -3 -4 -4 -3 -3 -3 -3 -3 -3
-0 -1 -1 -1 -1 -1 -1 -2 -2 -2 -2 -2 -2 -2 -3 -3 -3 -3 -3 -4 -4 -4 -4 -4 -4 -3 -3 -3 -3 -3 -3 -3 -4 -4 -4 -4 -4 -4 -4 -4 -4 -3 -3 -3
-1 -1 -2 -2 -2 -2 -2 -2 -2 -2 -2 -2 -3 -3 -3 -3 -4 -4 -4 -4 -4 -4 -4 -4 -4 -4 -4 -4 -4 -4 -4 -4 -4 -4 -4 -4 -4 -4 -4 -4 -4 -4 -4 -4
-2 -2 -2 -2 -2 -2 -2 -2 -3 -3 -3 -3 -3 -3 -4 -4 -4 -4 -4 -4 -4 -4 -4 -4 -4 -4 -4 -4 -4 -4 -4 -4 -4 -4 -5 -5 -5 -5 -5 -5 -5 -4 -4 -4
-3 -3 -3 -3 -3 -3 -3 -3 -3 -3 -3 -4 -4 -4 -4 -4 -4 -4 -5 -5 -5 -5 -5 -5 -5 -5 -5 -4 -4 -4 -4 -5 -5 -5 -5 -5 -5 -5 -5 -5 -5 -5 -4 -4
-3 -3 -3 -3 -3 -3 -3 -3 -4 -4 -4 -4 -4 -4 -5 -5 -5 -5 -5 -5 -5 -5 -5 -5 -5 -5 -5 -5 -5 -5 -5 -5 -5 -5 -5 -5 -5 -5 -5 -5 -5 -5 -5 -5
-3 -3 -3 -4 -4 -4 -4 -4 -4 -4 -4 -4 -5 -5 -5 -5 -5 -5 -5 -5 -6 -5 -5 -5 -5 -5 -5 -5 -5 -5 -5 -6 -6 -6 -6 -6 -6 -6 -5 -5 -5 -5 -5 -5
-4 -4 -4 -4 -4 -4 -4 -4 -4 -4 -5 -5 -5 -5 -5 -5 -5 -5 -6 -6 -6 -6 -6 -6 -6 -6 -6 -6 -6 -6 -6 -6 -6 -6 -6 -6 -6 -6 -6 -6 -5 -5 -5 -5
-4 -4 -4 -5 -5 -5 -5 -5 -5 -5 -5 -5 -6 -6 -6 -6 -6 -6 -6 -6 -6 -6 -6 -6 -6 -6 -6 -6 -6 -6 -6 -6 -6 -6 -6 -6 -6 -6 -6 -6 -6 -6 -5 -5
-5 -5 -5 -5 -5 -5 -5 -5 -5 -5 -6 -6 -6 -6 -6 -6 -6 -6 -7 -7 -6 -7 -7 -7 -6 -6 -6 -6 -6 -6 -6 -6 -6 -6 -6 -6 -6 -6 -6 -6 -6 -6 -6 -6
-5 -6 -6 -6 -6 -6 -6 -6 -6 -6 -6 -6 -6 -6 -7 -7 -7 -7 -7 -7 -7 -7 -7 -7 -7 -7 -7 -7 -6 -6 -6 -6 -6 -6 -6 -6 -6 -6 -6 -6 -6 -6 -6 -6
-6 -6 -6 -6 -6 -6 -6 -6 -6 -6 -7 -7 -7 -7 -7 -7 -7 -7 -7 -7 -7 -7 -7 -7 -7 -7 -7 -7 -7 -6 -7 -7 -7 -7 -7 -7 -7 -6 -6 -6 -6 -6 -6 -6
-7 -7 -7 -7 -7 -7 -7 -7 -7 -7 -7 -7 -7 -7 -7 -7 -7 -8 -8 -8 -8 -8 -8 -7 -7 -7 -7 -7 -7 -7 -7 -7 -7 -7 -7 -7 -7 -7 -7 -7 -7 -7 -6 -6
-7 -7 -7 -8 -8 -8 -8 -8 -8 -8 -8 -7 -7 -8 -8 -8 -8 -8 -8 -8 -8 -8 -8 -8 -8 -8 -7 -7 -7 -7 -7 -7 -7 -7 -7 -7 -7 -7 -7 -7 -7 -7 -7 -7
-8 -8 -8 -8 -8 -8 -8 -8 -8 -8 -8 -8 -8 -8 -8 -8 -8 -8 -8 -8 -8 -8 -8 -8 -8 -8 -8 -8 -8 -8 -8 -8 -8 -8 -7 -7 -7 -7 -7 -7 -7 -7 -7 -7
Wind_Speed
7 7 6 7 8 7 9 9 8 8 9 9 6 4 3 3 2 1 2 2 2 3 2 2 3 3 2 2 2 1 1 2 1 1 2 2 3 2 2 2 2 2 2 2
6 6 6 8 9 9 10 10 11 11 12 8 5 4 4 2 1 1 2 2 2 2 2 2 2 2 2 2 1 1 1 1 1 2 2 2 2 2 2 2 2 2 2 2
4 3 5 7 8 9 7 7 8 11 10 6 5 5 4 2 1 1 2 2 2 2 2 2 2 1 1 1 1 1 0 0 0 1 1 1 1 2 2 2 2 2 2 2
3 2 6 5 2 3 5 7 7 7 7 5 5 4 3 1 1 1 1 2 2 2 2 2 2 2 1 1 1 0 0 0 1 1 1 1 2 2 1 1 2 2 1 2
3 4 7 5 1 1 3 5 4 6 6 5 4 3 2 1 1 1 1 1 2 2 2 2 2 2 1 1 0 0 1 1 1 1 1 1 1 1 1 1 1 1 1 2
3 4 5 3 0 1 1 4 3 4 5 4 4 4 4 2 2 3 2 1 1 2 2 2 2 1 1 1 1 1 1 1 1 1 2 2 2 1 1 1 2 2 1 2
6 6 6 2 1 2 2 5 3 2 3 3 3 4 4 3 3 2 1 1 1 2 2 2 2 1 1 1 2 1 1 1 1 1 2 2 2 2 2 2 2 2 2 2
5 6 7 2 3 3 4 2 3 3 3 3 4 4 3 3 3 2 2 1 1 2 3 3 2 1 2 2 2 1 1 1 2 2 2 2 2 1 2 2 2 2 2 2
6 7 3 3 3 3 1 3 3 3 4 3 4 4 3 3 2 2 2 2 2 2 3 3 3 2 2 2 1 1 1 2 2 2 2 2 2 2 2 2 2 2 2 2
5 7 5 4 3 3 2 3 3 3 3 3 4 4 4 3 2 2 2 2 1 2 3 3 3 2 2 2 1 1 2 2 2 2 2 2 2 2 2 3 3 3 3 3
6 6 5 6 5 4 3 3 3 3 3 3 3 4 3 3 3 3 2 2 2 2 3 3 3 2 2 1 1 1 2 2 2 2 3 2 2 2 3 3 3 3 3 3
8 6 5 5 4 3 4 4 4 3 3 3 3 4 4 3 3 2 2 2 2 3 3 3 2 2 2 2 1 2 2 2 2 2 2 2 2 2 3 4 5 5 5 5
7 5 4 5 5 4 4 4 4 3 3 4 4 3 3 3 2 2 2 2 3 3 3 3 2 2 2 2 2 2 3 3 2 2 2 2 2 3 3 3 4 5 6 6
4 4 5 5 4 4 4 4 3 2 2 2 3 2 2 3 2 3 3 3 2 3 3 3 3 3 3 2 2 2 3 3 3 3 3 3 3 3 3 3 3 3 4 6
5 4 5 4 3 3 3 2 2 3 3 3 2 2 2 3 3 3 3 2 2 3 3 3 3 3 3 2 3 3 3 3 3 3 3 3 3 3 3 3 3 3 2 3
4 3 4 4 4 4 3 3 3 4 3 3 3 3 3 3 3 3 2 2 2 3 3 3 3 3 3 3 3 3 3 4 3 3 3 3 3 3 3 3 4 3 4 3
3 5 5 5 5 4 4 4 4 4 3 3 4 3 2 2 2 2 3 2 3 3 3 3 3 3 2 2 3 2 2 3 3 3 3 3 3 3 3 3 4 4 4 4
5 6 6 5 5 5 4 4 3 3 3 3 2 2 2 2 3 4 3 2 3 3 3 2 2 2 2 2 2 2 2 2 2 2 3 3 3 3 3 3 4 4 3 4
5 4 4 4 3 3 3 3 3 3 3 2 2 3 3 3 3 3 3 2 3 4 3 2 3 2 2 3 3 2 2 2 2 2 2 3 3 2 2 3 3 3 3 3
3 2 2 2 2 2 2 2 2 2 2 2 2 2 3 3 2 2 3 3 3 3 2 3 2 2 2 3 3 2 2 2 2 2 2 2 2 2 2 2 3 3 3 3
2 2 1 1 1 1 1 2 2 2 2 2 2 3 3 3 3 2 2 3 3 2 2 3 2 2 2 2 3 2 2 2 2 2 2 2 2 2 2 2 2 2 2 2
2 1 1 1 1 2 2 1 1 2 2 2 2 2 2 3 3 3 3 3 3 3 2 2 2 3 3 3 2 2 2 2 2 2 2 2 2 2 2 2 2 2 2 2
2 2 1 1 1 2 2 2 2 1 2 2 2 2 3 3 2 2 3 2 1 3 2 2 3 4 4 2 1 1 2 2 2 2 2 2 2 2 2 2 2 2 2 2
2 2 2 1 1 1 2 2 2 1 2 2 2 2 2 2 2 2 2 3 4 4 2 3 4 4 4 2 1 1 2 2 2 2 2 2 2 2 2 2 2 2 2 2
1 1 1 1 1 1 1 2 2 1 1 1 2 2 1 1 2 2 1 2 3 3 2 3 4 4 3 2 2 2 2 2 2 2 2 2 2 2 2 2 2 2 2 2
1 1 1 1 1 1 1 1 1 1 1 2 2 2 1 1 1 1 1 1 2 3 2 2 2 3 2 2 2 2 2 3 3 2 2 2 2 2 2 2 2 2 2 2
1 1 1 1 1 1 1 1 1 1 1 1 2 2 1 1 1 1 1 1 1 2 2 2 2 2 2 2 2 2 2 2 2 2 2 2 2 1 2 2 2 2 2 2
Wind_Direction
267 274 266 258 250 238 234 232 237 259 263 270 284 296 306 314 334 357 4 8 5 357 350 353 358 355 358 13 16 35 86 102 108 111 111 127 125 123 120 133 147 143 141 145
273 260 257 263 257 245 241 243 252 268 273 278 303 307 302 297 296 332 355 349 339 336 344 345 346 351 353 358 355 12 79 94 96 106 109 122 130 127 128 138 146 140 148 164
262 297 317 267 242 231 233 233 234 249 262 287 296 294 290 284 275 306 317 316 319 322 319 324 325 325 319 329 344 15 57 72 85 99 106 115 144 140 155 163 150 150 167 176
259 318 247 244 212 208 235 254 248 256 272 282 281 298 309 305 285 301 312 322 322 324 324 326 331 336 336 335 335 355 302 218 215 162 152 156 163 171 185 167 163 171 183 192
220 250 266 265 242 191 230 273 271 266 284 297 306 316 305 13 27 324 309 308 309 306 306 314 321 316 305 281 273 271 259 233 217 198 197 188 185 193 197 185 184 192 184 198
223 238 248 266 148 126 114 276 282 276 286 304 335 297 281 319 340 325 325 337 323 313 312 310 308 306 280 264 254 266 268 266 246 216 215 208 211 220 219 209 205 194 214 220
228 241 259 269 137 91 196 258 314 297 287 291 271 257 278 307 316 317 325 334 329 313 305 299 303 296 269 279 269 267 271 280 277 243 225 212 210 219 217 206 204 199 214 229
208 228 251 197 139 190 237 296 315 319 306 296 288 289 293 305 314 330 335 338 338 324 313 308 299 281 261 266 267 253 238 255 262 253 244 228 205 225 228 206 210 216 219 233
208 225 252 186 213 241 274 286 290 300 304 310 303 301 302 302 306 317 323 324 328 317 309 311 305 283 260 271 269 238 226 244 255 262 251 232 221 225 229 219 217 226 222 231
248 257 263 252 265 269 273 280 290 293 297 303 294 296 301 300 300 303 302 302 307 302 299 304 303 290 268 275 269 235 241 256 256 251 246 241 239 233 227 227 223 224 227 233
251 268 283 267 256 261 273 285 296 303 298 286 282 285 286 288 286 287 292 291 282 277 281 288 296 294 287 275 269 249 248 254 255 247 241 236 231 232 229 232 227 225 230 230
238 240 238 262 271 269 267 274 279 284 292 294 283 275 281 276 273 274 275 275 277 280 282 283 291 295 299 290 265 244 249 253 251 242 247 235 226 254 253 241 246 247 246 246
242 262 257 271 284 285 271 273 276 274 273 283 287 279 279 280 283 285 280 276 276 278 283 282 285 286 292 293 279 256 243 249 250 247 250 247 236 235 249 263 247 247 250 255
246 253 262 262 268 281 284 288 289 292 290 281 283 289 286 282 286 282 278 277 279 281 281 276 277 281 284 279 275 268 255 254 253 244 244 244 243 243 239 239 252 261 258 254
259 251 249 262 268 275 279 287 291 291 294 297 294 288 278 270 271 275 282 289 290 284 281 278 279 285 294 286 275 265 258 252 250 245 245 245 245 246 245 243 245 253 261 260
261 265 257 257 258 263 267 267 267 276 282 282 283 283 277 268 272 281 280 269 263 268 274 275 275 279 288 286 280 271 266 260 254 246 244 244 244 243 244 240 241 243 246 247
239 254 255 261 261 262 262 261 260 266 272 274 276 281 284 287 287 283 281 283 274 268 268 267 273 284 288 283 279 274 269 262 257 252 245 245 244 243 241 236 236 240 245 245
237 245 246 250 256 261 264 263 264 269 271 272 281 283 271 264 264 271 278 291 298 292 277 269 269 281 282 285 286 277 267 259 252 242 244 246 253 250 245 240 235 238 245 249
253 254 255 250 247 248 258 259 262 266 270 266 264 266 267 267 270 274 280 279 276 279 279 270 283 284 279 285 291 272 270 265 259 251 248 253 259 253 248 247 245 242 242 243
275 273 265 262 252 242 256 266 261 266 267 259 266 279 284 284 283 279 273 267 264 264 264 274 279 276 275 275 289 275 271 266 262 259 255 248 247 251 253 254 251 249 247 241
286 282 268 275 298 292 269 264 252 258 266 249 244 258 271 280 279 271 268 281 291 281 273 281 288 281 281 279 285 273 267 268 268 262 258 256 256 255 253 256 259 259 254 251
305 301 288 283 288 302 306 298 268 258 264 268 270 266 271 277 280 280 270 262 274 294 302 281 287 292 298 298 283 275 275 276 277 271 264 258 253 252 252 252 256 261 259 255
310 307 297 283 275 287 311 311 296 272 260 261 256 254 258 264 263 266 289 292 279 298 309 286 301 307 312 319 306 290 284 279 276 275 271 264 259 255 253 253 255 257 256 257
327 327 322 324 328 315 310 314 319 306 283 278 268 259 256 273 290 280 268 290 309 317 316 305 314 318 325 332 311 297 287 283 279 274 270 267 264 262 259 258 263 261 256 253
330 327 330 329 309 294 305 327 331 324 321 315 306 294 283 267 266 292 311 303 310 327 326 316 323 330 340 333 322 310 302 292 288 282 270 267 264 262 265 261 260 258 254 251
322 310 302 296 288 296 308 309 309 312 325 327 326 323 326 331 312 299 304 304 305 322 330 323 320 326 331 326 316 311 309 309 312 310 296 285 277 272 271 270 268 263 263 262
339 337 345 344 337 320 309 300 294 295 297 296 309 315 324 330 329 332 327 325 329 332 330 329 327 330 333 330 324 319 314 311 309 307 302 297 291 283 280 276 275 270 265 259
Height
1482 1479 1479 1479 1479 1479 1481 1479 1480 1470 1466 1461 1460 1460 1460 1459 1459 1458 1457 1457 1456 1456 1455 1455 1454 1453 1453 1453 1453 1453 1453 1454 1455 1456 1457 1458 1459 1460 1461 1463 1464 1465 1466 1468
1482 1476 1477 1476 1474 1474 1473 1472 1470 1466 1463 1458 1458 1458 1458 1457 1457 1456 1455 1455 1455 1454 1454 1453 1452 1452 1451 1451 1451 1451 1451 1451 1452 1453 1454 1455 1456 1457 1458 1460 1461 1462 1463 1464
1482 1476 1477 1477 1470 1468 1467 1465 1465 1465 1460 1457 1457 1456 1456 1455 1455 1454 1454 1453 1452 1452 1452 1451 1451 1450 1450 1450 1449 1450 1450 1450 1451 1451 1452 1453 1454 1455 1456 1457 1458 1459 1460 1462
1483 1484 1484 1467 1459 1459 1461 1460 1460 1457 1455 1455 1455 1454 1454 1453 1453 1452 1451 1451 1450 1450 1449 1449 1449 1448 1448 1448 1448 1448 1448 1448 1449 1449 1450 1451 1452 1453 1453 1454 1455 1456 1457 1459
1483 1482 1471 1461 1458 1458 1461 1460 1457 1456 1454 1454 1453 1451 1451 1452 1451 1450 1450 1449 1448 1448 1447 1447 1447 1446 1446 1446 1446 1446 1446 1446 1447 1447 1448 1448 1449 1450 1451 1452 1452 1453 1454 1456
1480 1479 1474 1460 1457 1455 1459 1461 1454 1453 1452 1452 1451 1453 1451 1450 1449 1448 1447 1446 1446 1445 1445 1444 1444 1444 1444 1443 1443 1443 1444 1444 1444 1445 1445 1446 1446 1447 1448 1449 1449 1451 1452 1453
1478 1476 1466 1458 1455 1456 1464 1459 1452 1451 1450 1450 1450 1450 1449 1447 1446 1445 1444 1444 1443 1443 1442 1442 1441 1441 1441 1441 1441 1441 1442 1442 1442 1442 1442 1443 1443 1444 1445 1446 1446 1447 1448 1449
1473 1473 1467 1455 1454 1457 1455 1451 1450 1449 1449 1448 1447 1446 1445 1444 1443 1442 1441 1441 1440 1440 1439 1439 1439 1438 1438 1438 1438 1439 1439 1439 1439 1439 1440 1440 1440 1441 1442 1442 1443 1444 1445 1445
1463 1460 1453 1451 1450 1450 1450 1449 1448 1447 1447 1446 1444 1443 1442 1442 1440 1440 1439 1438 1438 1437 1436 1436 1436 1436 1435 1435 1436 1435 1435 1435 1435 1436 1436 1436 1437 1437 1438 1439 1439 1440 1441 1441
1456 1451 1449 1448 1447 1447 1447 1447 1446 1445 1444 1443 1442 1441 1439 1439 1438 1437 1436 1436 1435 1434 1434 1433 1433 1433 1432 1432 1432 1432 1432 1432 1432 1432 1432 1432 1433 1433 1434 1435 1435 1436 1437 1437
1453 1448 1446 1444 1444 1444 1444 1443 1443 1442 1441 1440 1439 1438 1437 1436 1435 1434 1433 1433 1432 1432 1431 1430 1429 1429 1429 1429 1429 1428 1428 1428 1428 1428 1428 1428 1429 1429 1430 1431 1432 1433 1433 1434
1446 1443 1443 1441 1441 1441 1440 1439 1439 1438 1437 1436 1436 1435 1434 1432 1431 1431 1430 1430 1429 1428 1428 1427 1426 1426 1426 1425 1425 1425 1424 1424 1424 1424 1424 1424 1425 1425 1426 1427 1428 1429 1430 1431
1438 1438 1438 1437 1437 1437 1436 1436 1435 1434 1434 1433 1432 1431 1430 1429 1428 1427 1427 1426 1425 1425 1424 1423 1423 1422 1422 1422 1421 1421 1420 1420 1420 1420 1420 1420 1421 1421 1422 1423 1424 1425 1425 1426
1434 1434 1434 1433 1433 1433 1433 1432 1432 1431 1430 1429 1428 1427 1426 1426 1425 1424 1423 1423 1422 1422 1421 1420 1419 1419 1418 1418 1418 1417 1417 1417 1417 1416 1417 1417 1417 1418 1418 1418 1419 1419 1421 1422
1430 1430 1430 1429 1429 1429 1429 1428 1428 1426 1426 1425 1425 1424 1423 1422 1421 1421 1420 1420 1419 1418 1417 1417 1416 1415 1415 1414 1414 1414 1413 1413 1413 1413 1413 1413 1413 1414 1414 1415 1415 1416 1416 1417
1426 1426 1426 1426 1425 1425 1425 1425 1424 1423 1422 1422 1421 1420 1419 1419 1418 1417 1417 1417 1416 1415 1414 1413 1412 1412 1411 1411 1410 1410 1409 1409 1409 1409 1409 1409 1409 1410 1410 1411 1411 1412 1412 1413
1422 1421 1421 1421 1421 1421 1421 1421 1420 1420 1419 1418 1417 1417 1416 1415 1415 1414 1414 1414 1413 1412 1411 1410 1409 1408 1408 1407 1407 1406 1406 1406 1406 1406 1406 1406 1406 1406 1406 1407 1407 1408 1408 1409
1418 1418 1418 1417 1417 1417 1417 1417 1417 1416 1416 1415 1414 1414 1413 1412 1411 1411 1410 1410 1409 1409 1408 1407 1406 1405 1405 1404 1404 1403 1403 1402 1402 1402 1402 1402 1402 1403 1403 1403 1403 1404 1404 1405
1413 1413 1413 1413 1413 1413 1413 1413 1413 1413 1412 1412 1411 1410 1409 1409 1408 1408 1407 1407 1406 1405 1404 1404 1403 1403 1402 1401 1401 1400 1400 1399 1399 1400 1400 1400 1400 1399 1399 1400 1400 1400 1401 1402
1409 1409 1409 1409 1409 1410 1410 1409 1409 1409 1409 1408 1407 1407 1406 1406 1406 1405 1404 1404 1403 1402 1402 1401 1400 1400 1399 1399 1398 1398 1397 1397 1397 1397 1397 1397 1397 1397 1397 1397 1397 1397 1398 1398
1406 1406 1406 1406 1406 1406 1407 1406 1406 1406 1405 1405 1404 1404 1403 1403 1403 1402 1401 1400 1400 1400 1399 1398 1398 1397 1397 1396 1396 1395 1395 1395 1395 1395 1394 1394 1394 1394 1394 1394 1394 1394 1395 1395
1403 1403 1403 1403 1403 1403 1404 1404 1403 1403 1402 1402 1401 1401 1400 1400 1399 1399 1399 1398 1397 1397 1396 1396 1395 1395 1394 1394 1393 1393 1393 1393 1392 1392 1392 1392 1392 1392 1392 1392 1392 1392 1392 1392
1401 1401 1400 1401 1401 1401 1401 1401 1400 1400 1399 1399 1398 1398 1397 1397 1397 1396 1395 1396 1395 1394 1394 1393 1393 1393 1392 1392 1391 1391 1391 1390 1390 1390 1390 1389 1389 1389 1389 1389 1389 1389 1390 1390
1399 1398 1398 1398 1398 1398 1398 1397 1397 1397 1397 1396 1396 1395 1395 1394 1394 1394 1394 1393 1393 1392 1391 1391 1391 1390 1390 1389 1389 1389 1388 1388 1388 1387 1387 1387 1387 1387 1387 1387 1387 1387 1387 1387
1397 1396 1396 1396 1396 1396 1395 1395 1395 1394 1394 1394 1394 1393 1393 1393 1392 1391 1391 1391 1390 1390 1389 1389 1389 1388 1388 1387 1387 1387 1386 1386 1386 1385 1385 1385 1385 1385 1385 1385 1384 1384 1384 1384
1395 1394 1394 1394 1394 1394 1393 1393 1393 1392 1392 1392 1391 1391 1391 1391 1390 1389 1389 1388 1388 1388 1387 1387 1386 1386 1386 1385 1385 1385 1384 1384 1383 1383 1383 1383 1382 1382 1382 1382 1382 1382 1382 1382
1394 1393 1393 1393 1392 1392 1392 1392 1391 1391 1390 1390 1389 1389 1389 1389 1388 1387 1387 1386 1386 1386 1385 1385 1385 1384 1384 1383 1383 1382 1382 1381 1381 1381 1380 1380 1380 1380 1380 1380 1380 1379 1379 1379